�������l�o���
Date,Time,MP-1(��Sv/h),MP-2(��Sv/h),MP-3(��Sv/h),MP-4(��Sv/h),MP-5(��Sv/h),MP-6(��Sv/h),MP-7(��Sv/h),MP-8(��Sv/h),����,����(m/s),���J
2021/01/07,00:00,0.667,0.953,0.607,1.203,0.848,0.379,0.671,0.634,�쐼,4.3,��
2021/01/07,00:10,0.669,0.953,0.608,1.200,0.848,0.379,0.672,0.635,�쐼,4.4,��
2021/01/07,00:20,0.670,0.951,0.609,1.204,0.846,0.379,0.672,0.633,�쐼,4.4,��
2021/01/07,00:30,0.669,0.951,0.609,1.203,0.847,0.379,0.673,0.634,�쐼,5.4,��
2021/01/07,00:40,0.669,0.951,0.609,1.204,0.845,0.379,0.672,0.632,��쐼,4.7,��
2021/01/07,00:50,0.670,0.955,0.608,1.201,0.849,0.378,0.671,0.634,��쐼,4.8,��
2021/01/07,01:00,0.668,0.952,0.610,1.202,0.847,0.378,0.674,0.634,��,4.2,��
2021/01/07,01:10,0.668,0.952,0.608,1.201,0.848,0.381,0.674,0.634,��,4.3,��
2021/01/07,01:20,0.668,0.951,0.611,1.202,0.845,0.380,0.673,0.635,��쐼,4.0,��
2021/01/07,01:30,0.670,0.951,0.608,1.203,0.847,0.379,0.673,0.634,��쐼,3.8,��
2021/01/07,01:40,0.670,0.950,0.609,1.204,0.849,0.379,0.672,0.634,�쐼,3.8,��
2021/01/07,01:50,0.667,0.953,0.607,1.202,0.847,0.380,0.671,0.634,��쐼,3.5,��
2021/01/07,02:00,0.669,0.952,0.607,1.202,0.848,0.378,0.672,0.634,��쐼,4.2,��
2021/01/07,02:10,0.668,0.952,0.608,1.203,0.849,0.378,0.673,0.634,��쐼,4.0,��
2021/01/07,02:20,0.668,0.953,0.607,1.203,0.848,0.379,0.672,0.633,��쐼,4.7,��
2021/01/07,02:30,0.669,0.951,0.609,1.203,0.847,0.380,0.671,0.635,�쐼,4.9,��
2021/01/07,02:40,0.670,0.952,0.610,1.204,0.848,0.379,0.671,0.633,��쐼,4.8,��
2021/01/07,02:50,0.667,0.953,0.608,1.203,0.848,0.379,0.673,0.634,��쐼,5.2,��
2021/01/07,03:00,0.669,0.953,0.609,1.203,0.848,0.380,0.673,0.633,�쐼,3.9,��
2021/01/07,03:10,0.668,0.954,0.610,1.204,0.848,0.380,0.673,0.634,�쐼,4.2,��
2021/01/07,03:20,0.670,0.952,0.607,1.201,0.849,0.380,0.674,0.633,��쐼,4.1,��
2021/01/07,03:30,0.668,0.951,0.609,1.204,0.849,0.380,0.674,0.634,��쐼,5.6,��
2021/01/07,03:40,0.670,0.954,0.609,1.203,0.849,0.381,0.674,0.633,��,7.7,��
2021/01/07,03:50,0.671,0.951,0.610,1.205,0.848,0.380,0.672,0.636,��쐼,7.9,��
2021/01/07,04:00,0.670,0.952,0.609,1.203,0.847,0.380,0.676,0.634,��,8.4,��
2021/01/07,04:10,0.672,0.953,0.610,1.202,0.850,0.381,0.673,0.634,��,7.9,��
2021/01/07,04:20,0.671,0.952,0.611,1.204,0.849,0.380,0.673,0.634,��,7.2,��
2021/01/07,04:30,0.672,0.953,0.610,1.204,0.850,0.381,0.673,0.637,��,6.9,��
2021/01/07,04:40,0.669,0.950,0.610,1.204,0.847,0.382,0.675,0.635,��쐼,5.3,��
2021/01/07,04:50,0.672,0.952,0.610,1.204,0.850,0.382,0.673,0.634,��,5.7,��
2021/01/07,05:00,0.672,0.951,0.609,1.204,0.848,0.381,0.674,0.635,��,4.8,��
2021/01/07,05:10,0.672,0.953,0.609,1.204,0.849,0.380,0.674,0.634,��,5.0,��
2021/01/07,05:20,0.673,0.953,0.609,1.205,0.849,0.379,0.675,0.635,��,5.5,��
2021/01/07,05:30,0.672,0.952,0.610,1.205,0.850,0.380,0.674,0.634,��쐼,4.8,��
2021/01/07,05:40,0.669,0.952,0.611,1.203,0.847,0.382,0.674,0.634,��쐼,4.9,��
2021/01/07,05:50,0.671,0.953,0.610,1.205,0.849,0.380,0.675,0.634,��,3.7,��
2021/01/07,06:00,0.670,0.952,0.610,1.203,0.848,0.381,0.674,0.635,��쐼,4.4,��
2021/01/07,06:10,0.670,0.951,0.610,1.204,0.850,0.381,0.675,0.634,��쐼,3.0,��
2021/01/07,06:20,0.672,0.954,0.610,1.205,0.851,0.380,0.674,0.634,���k��,2.3,��
2021/01/07,06:30,0.670,0.951,0.609,1.205,0.849,0.379,0.675,0.635,�k�k��,1.2,��
2021/01/07,06:40,0.671,0.954,0.612,1.205,0.848,0.380,0.674,0.634,�k,1.4,��
2021/01/07,06:50,0.670,0.952,0.610,1.204,0.849,0.381,0.674,0.634,��,0.9,��
2021/01/07,07:00,0.671,0.950,0.610,1.204,0.847,0.380,0.675,0.634,���k��,0.6,��
2021/01/07,07:10,0.673,0.952,0.608,1.205,0.848,0.381,0.675,0.634,�쐼,0.8,��
2021/01/07,07:20,0.670,0.954,0.612,1.205,0.848,0.380,0.675,0.635,�쐼,2.6,��
2021/01/07,07:30,0.671,0.954,0.611,1.204,0.849,0.380,0.673,0.634,��,4.4,��
2021/01/07,07:40,0.671,0.953,0.611,1.203,0.847,0.381,0.675,0.634,��,6.5,��
2021/01/07,07:50,0.671,0.953,0.610,1.204,0.852,0.382,0.674,0.635,��,5.5,��
2021/01/07,08:00,0.671,0.952,0.612,1.205,0.848,0.382,0.673,0.634,���k��,6.1,��
2021/01/07,08:10,0.669,0.952,0.610,1.205,0.849,0.381,0.674,0.636,��,5.2,��
2021/01/07,08:20,0.672,0.953,0.610,1.204,0.847,0.382,0.674,0.635,��,3.8,��
2021/01/07,08:30,0.669,0.952,0.610,1.204,0.847,0.381,0.674,0.635,���쐼,5.6,��
2021/01/07,08:40,0.670,0.951,0.610,1.205,0.849,0.382,0.676,0.634,���쐼,7.7,��
2021/01/07,08:50,0.672,0.952,0.607,1.205,0.849,0.381,0.676,0.634,���쐼,6.0,��
2021/01/07,09:00,0.671,0.952,0.611,1.204,0.847,0.381,0.675,0.636,���쐼,6.1,��
2021/01/07,09:10,0.673,0.951,0.609,1.205,0.849,0.380,0.677,0.636,���쐼,5.8,��
2021/01/07,09:20,0.673,0.952,0.611,1.207,0.849,0.380,0.676,0.635,���쐼,4.3,��
2021/01/07,09:30,0.671,0.950,0.612,1.207,0.850,0.381,0.676,0.634,��,5.3,��
2021/01/07,09:40,0.673,0.950,0.610,1.206,0.847,0.382,0.677,0.635,��,7.1,��
2021/01/07,09:50,0.673,0.951,0.610,1.205,0.849,0.381,0.677,0.636,��,6.8,��
2021/01/07,10:00,0.673,0.950,0.612,1.205,0.850,0.381,0.675,0.635,���쐼,3.0,��
2021/01/07,10:10,0.673,0.947,0.612,1.206,0.849,0.383,0.673,0.637,�쐼,6.2,��
2021/01/07,10:20,0.675,0.951,0.612,1.206,0.851,0.382,0.677,0.635,���쐼,5.3,��
2021/01/07,10:30,0.675,0.947,0.611,1.208,0.849,0.384,0.675,0.635,��,4.4,��
2021/01/07,10:40,0.674,0.948,0.610,1.206,0.850,0.382,0.675,0.636,�쐼,3.6,��
2021/01/07,10:50,0.671,0.947,0.613,1.208,0.851,0.382,0.675,0.635,��,1.5,��
2021/01/07,11:00,0.675,0.946,0.611,1.206,0.852,0.383,0.674,0.637,�쓌,3.4,��
2021/01/07,11:10,0.672,0.947,0.611,1.207,0.852,0.383,0.676,0.635,�쓌,4.9,��
2021/01/07,11:20,0.674,0.949,0.613,1.207,0.855,0.383,0.674,0.637,�쓌,4.3,��
2021/01/07,11:30,0.675,0.949,0.613,1.210,0.853,0.384,0.674,0.637,�쓌,5.5,��
2021/01/07,11:40,0.676,0.951,0.612,1.210,0.853,0.383,0.675,0.637,�쓌,5.4,��
2021/01/07,11:50,0.673,0.955,0.612,1.207,0.854,0.382,0.673,0.636,�쓌,6.5,��
2021/01/07,12:00,0.674,0.951,0.612,1.210,0.855,0.382,0.674,0.637,�쓌,6.5,��
2021/01/07,12:10,0.674,0.952,0.612,1.207,0.853,0.382,0.675,0.636,�쓌,5.3,��
2021/01/07,12:20,0.675,0.955,0.614,1.209,0.854,0.382,0.676,0.636,�쓌,6.0,��
2021/01/07,12:30,0.675,0.957,0.613,1.207,0.853,0.382,0.676,0.639,��쓌,7.5,��
2021/01/07,12:40,0.675,0.954,0.612,1.208,0.854,0.382,0.677,0.636,��쓌,6.9,��
2021/01/07,12:50,0.674,0.955,0.611,1.208,0.854,0.384,0.677,0.637,��쓌,7.2,��
2021/01/07,13:00,0.674,0.953,0.613,1.205,0.854,0.384,0.677,0.637,��쓌,9.6,��
2021/01/07,13:10,0.675,0.954,0.612,1.207,0.856,0.383,0.678,0.637,��쓌,8.9,��
2021/01/07,13:20,0.675,0.953,0.612,1.209,0.853,0.382,0.679,0.635,��쓌,9.4,��
2021/01/07,13:30,0.675,0.954,0.612,1.208,0.853,0.382,0.680,0.635,��쓌,8.0,��
2021/01/07,13:40,0.676,0.953,0.614,1.208,0.856,0.384,0.678,0.635,��,7.8,��
2021/01/07,13:50,0.674,0.952,0.613,1.209,0.853,0.384,0.679,0.635,��,7.4,��
2021/01/07,14:00,0.677,0.953,0.615,1.208,0.854,0.385,0.679,0.634,��,6.1,��
2021/01/07,14:10,0.675,0.954,0.614,1.209,0.856,0.384,0.678,0.634,�쐼,7.8,��
2021/01/07,14:20,0.674,0.953,0.614,1.207,0.855,0.384,0.680,0.635,�쐼,8.1,��
2021/01/07,14:30,0.676,0.951,0.613,1.206,0.854,0.383,0.678,0.635,�쐼,6.8,��
2021/01/07,14:40,0.677,0.954,0.615,1.208,0.855,0.383,0.679,0.635,�쐼,5.9,��
2021/01/07,14:50,0.675,0.953,0.614,1.209,0.856,0.385,0.678,0.635,�쐼,7.3,��
2021/01/07,15:00,0.676,0.958,0.614,1.209,0.854,0.384,0.677,0.637,�쐼,6.0,��
2021/01/07,15:10,0.677,0.958,0.614,1.208,0.857,0.384,0.679,0.636,���쐼,4.8,��
2021/01/07,15:20,0.678,0.957,0.616,1.207,0.858,0.386,0.678,0.638,��,3.4,��
2021/01/07,15:30,0.679,0.955,0.614,1.208,0.856,0.384,0.679,0.637,��,4.0,��
2021/01/07,15:40,0.675,0.957,0.613,1.207,0.856,0.385,0.678,0.637,���k��,4.4,��
2021/01/07,15:50,0.677,0.961,0.613,1.207,0.854,0.384,0.678,0.637,���k��,9.8,�L
2021/01/07,16:00,0.675,0.957,0.615,1.209,0.855,0.384,0.677,0.639,���k��,10.6,�L
2021/01/07,16:10,0.677,0.957,0.614,1.212,0.855,0.383,0.676,0.636,���k��,11.8,�L
2021/01/07,16:20,0.674,0.955,0.613,1.211,0.855,0.382,0.674,0.637,��,10.2,�L
2021/01/07,16:30,0.675,0.956,0.613,1.210,0.854,0.384,0.676,0.637,��,11.1,��
2021/01/07,16:40,0.675,0.957,0.614,1.210,0.854,0.383,0.675,0.637,���k��,9.4,��
2021/01/07,16:50,0.673,0.956,0.613,1.207,0.852,0.382,0.675,0.638,��,10.6,��
2021/01/07,17:00,0.673,0.954,0.612,1.208,0.854,0.382,0.675,0.636,��,11.1,��
2021/01/07,17:10,0.672,0.955,0.613,1.208,0.854,0.383,0.677,0.637,��,12.0,��
2021/01/07,17:20,0.673,0.957,0.613,1.210,0.855,0.382,0.676,0.635,��,13.6,��
2021/01/07,17:30,0.674,0.955,0.613,1.210,0.855,0.382,0.677,0.637,��,12.5,��
2021/01/07,17:40,0.673,0.957,0.612,1.211,0.853,0.382,0.677,0.636,��,12.4,��
2021/01/07,17:50,0.672,0.956,0.610,1.208,0.853,0.381,0.676,0.636,��,14.4,��
2021/01/07,18:00,0.673,0.958,0.608,1.210,0.853,0.380,0.676,0.638,��,14.4,��
2021/01/07,18:10,0.674,0.957,0.611,1.208,0.854,0.380,0.677,0.638,��,14.1,��
2021/01/07,18:20,0.672,0.959,0.611,1.209,0.851,0.381,0.675,0.637,��,11.3,��
2021/01/07,18:30,0.671,0.958,0.608,1.208,0.850,0.382,0.675,0.638,��,13.5,��
2021/01/07,18:40,0.672,0.957,0.610,1.205,0.849,0.381,0.677,0.637,��,16.6,��
2021/01/07,18:50,0.670,0.955,0.613,1.207,0.852,0.380,0.677,0.636,��,15.8,��
2021/01/07,19:00,0.672,0.955,0.611,1.208,0.850,0.380,0.676,0.638,��,13.5,��
2021/01/07,19:10,0.672,0.954,0.610,1.209,0.851,0.380,0.676,0.639,��,14.4,��
2021/01/07,19:20,0.671,0.954,0.611,1.209,0.852,0.380,0.677,0.637,��,12.4,��
2021/01/07,19:30,0.672,0.955,0.610,1.209,0.850,0.379,0.677,0.639,��,12.0,��
2021/01/07,19:40,0.671,0.956,0.611,1.207,0.853,0.381,0.675,0.638,��,11.6,��
2021/01/07,19:50,0.671,0.955,0.609,1.208,0.848,0.379,0.676,0.639,��,13.0,��
2021/01/07,20:00,0.671,0.956,0.611,1.209,0.852,0.380,0.677,0.637,��,10.6,��
2021/01/07,20:10,0.671,0.954,0.611,1.209,0.850,0.381,0.676,0.638,��,9.4,��
2021/01/07,20:20,0.670,0.955,0.610,1.208,0.852,0.380,0.675,0.638,���k��,8.9,��
2021/01/07,20:30,0.670,0.958,0.610,1.207,0.851,0.380,0.676,0.638,�k��,7.9,��
2021/01/07,20:40,0.672,0.959,0.610,1.209,0.851,0.380,0.675,0.637,�k��,9.1,�L
2021/01/07,20:50,0.672,0.955,0.611,1.208,0.852,0.383,0.675,0.636,�k��,12.1,�L
2021/01/07,21:00,0.674,0.950,0.611,1.204,0.849,0.386,0.672,0.635,�k��,12.7,�L
2021/01/07,21:10,0.673,0.947,0.612,1.194,0.843,0.386,0.671,0.634,���k��,13.6,�L
2021/01/07,21:20,0.673,0.943,0.614,1.192,0.841,0.388,0.669,0.631,���k��,10.4,�L
2021/01/07,21:30,0.669,0.944,0.612,1.191,0.841,0.388,0.669,0.633,���k��,8.3,��
2021/01/07,21:40,0.666,0.938,0.609,1.190,0.838,0.387,0.667,0.633,�k��,7.1,��
2021/01/07,21:50,0.664,0.938,0.607,1.187,0.834,0.383,0.666,0.631,���k��,9.0,�L
2021/01/07,22:00,0.663,0.936,0.604,1.187,0.836,0.383,0.665,0.633,���k��,9.1,��
2021/01/07,22:10,0.661,0.938,0.605,1.185,0.832,0.383,0.666,0.632,���k��,9.1,��
2021/01/07,22:20,0.659,0.938,0.603,1.184,0.831,0.382,0.670,0.632,�k��,10.5,��
2021/01/07,22:30,0.660,0.935,0.603,1.183,0.834,0.382,0.668,0.632,���k��,7.3,��
2021/01/07,22:40,0.661,0.936,0.603,1.183,0.832,0.380,0.669,0.632,���k��,11.3,��
2021/01/07,22:50,0.658,0.936,0.599,1.182,0.830,0.380,0.668,0.632,��,7.2,�L
2021/01/07,23:00,0.657,0.936,0.600,1.180,0.829,0.379,0.665,0.633,��,6.7,�L
2021/01/07,23:10,0.657,0.933,0.601,1.183,0.829,0.378,0.668,0.632,���k��,6.0,��
2021/01/07,23:20,0.653,0.932,0.600,1.181,0.828,0.377,0.667,0.630,���k��,7.1,��
2021/01/07,23:30,0.655,0.931,0.601,1.180,0.826,0.377,0.667,0.632,���k��,7.3,��
2021/01/07,23:40,0.655,0.933,0.599,1.177,0.829,0.376,0.665,0.631,���k��,7.2,��
2021/01/07,23:50,0.654,0.931,0.598,1.179,0.827,0.377,0.667,0.631,���k��,7.3,��
